When you browse on this site, cookies collect data to enhance your experience and personalize the content and advertising you see.
Visit our Privacy Policy to learn more. By continuing to use the site, you agree to this use of cookies and data.
  • In Austria
  • List of Countries
  • For 7 days
  • Water Temperature
  • Weather Map
  • News
  • Weather Widgets
  • user-avatar
    Login

    Hourly Weather Caracas

    Today, 19 January, Sunday

    Time Temperature Precipitation Wind Pressure Humidity
    00:00 +15°C° 0 mm 2 mps 649 mmHg 94%
    01:00 +15°C° 0 mm 2 mps 649 mmHg 94%
    02:00 +15°C° 0 mm 2 mps 649 mmHg 92%
    03:00 +15°C° 0 mm 2 mps 649 mmHg 92%
    04:00 +15°C° 0 mm 2 mps 649 mmHg 92%
    05:00 +15°C° 0 mm 2 mps 649 mmHg 92%
    06:00 +16°C° 0 mm 2 mps 649 mmHg 91%
    07:00 +16°C° 0 mm 2 mps 649 mmHg 90%
    08:00 +17°C° 0 mm 2 mps 650 mmHg 86%
    09:00 +18°C° 0 mm 2 mps 651 mmHg 80%
    10:00 +20°C° 0 mm 3 mps 652 mmHg 73%
    11:00 +22°C° 0 mm 4 mps 652 mmHg 67%
    12:00 +22°C° 0.1 mm 4 mps 652 mmHg 69%
    13:00 +22°C° 0.1 mm 4 mps 651 mmHg 70%
    14:00 +22°C° 0.1 mm 4 mps 650 mmHg 72%
    15:00 +21°C° 0.1 mm 4 mps 650 mmHg 73%
    16:00 +21°C° 0.1 mm 4 mps 649 mmHg 75%
    17:00 +21°C° 0.1 mm 4 mps 649 mmHg 77%
    18:00 +19°C° 0 mm 4 mps 649 mmHg 83%
    19:00 +18°C° 0 mm 3 mps 649 mmHg 89%
    20:00 +17°C° 0 mm 3 mps 649 mmHg 95%
    21:00 +16°C° 0 mm 3 mps 649 mmHg 95%
    22:00 +16°C° 0 mm 3 mps 649 mmHg 94%
    23:00 +16°C° 0 mm 3 mps 649 mmHg 94%

    Tomorrow, 20 January, Monday

    Time Temperature Precipitation Wind Pressure Humidity
    00:00 +16°C° 0 mm 3 mps 649 mmHg 93%
    01:00 +16°C° 0 mm 2 mps 649 mmHg 93%
    02:00 +16°C° 0 mm 2 mps 649 mmHg 92%
    03:00 +16°C° 0 mm 2 mps 649 mmHg 92%
    04:00 +16°C° 0 mm 2 mps 649 mmHg 92%
    05:00 +16°C° 0 mm 2 mps 649 mmHg 92%
    06:00 +17°C° 0 mm 2 mps 649 mmHg 92%
    07:00 +17°C° 0 mm 2 mps 649 mmHg 91%
    08:00 +17°C° 0 mm 2 mps 649 mmHg 90%
    09:00 +19°C° 0 mm 2 mps 650 mmHg 80%
    10:00 +23°C° 0 mm 2 mps 651 mmHg 71%
    11:00 +25°C° 0 mm 2 mps 652 mmHg 61%
    12:00 +25°C° 0.1 mm 3 mps 651 mmHg 62%
    13:00 +25°C° 0.1 mm 3 mps 651 mmHg 62%
    14:00 +25°C° 0.1 mm 3 mps 650 mmHg 63%
    15:00 +24°C° 0.1 mm 3 mps 649 mmHg 67%
    16:00 +22°C° 0.1 mm 3 mps 649 mmHg 70%
    17:00 +22°C° 0.1 mm 3 mps 648 mmHg 74%
    18:00 +20°C° 0 mm 3 mps 648 mmHg 80%
    19:00 +19°C° 0 mm 3 mps 648 mmHg 87%
    20:00 +18°C° 0 mm 3 mps 648 mmHg 93%
    21:00 +17°C° 0 mm 3 mps 648 mmHg 94%
    22:00 +17°C° 0 mm 3 mps 648 mmHg 94%
    23:00 +17°C° 0 mm 2 mps 649 mmHg 95%

    Day after tomorrow, 21 January, Tuesday

    Time Temperature Precipitation Wind Pressure Humidity
    00:00 +17°C° 0 mm 2 mps 649 mmHg 94%
    01:00 +17°C° 0 mm 2 mps 648 mmHg 94%
    02:00 +17°C° 0 mm 2 mps 648 mmHg 94%
    03:00 +17°C° 0 mm 2 mps 648 mmHg 94%
    04:00 +17°C° 0 mm 2 mps 648 mmHg 94%
    05:00 +17°C° 0 mm 2 mps 648 mmHg 94%
    06:00 +17°C° 0 mm 2 mps 648 mmHg 93%
    07:00 +17°C° 0 mm 2 mps 649 mmHg 92%
    08:00 +17°C° 0 mm 2 mps 649 mmHg 91%
    09:00 +20°C° 0 mm 2 mps 650 mmHg 83%
    10:00 +23°C° 0 mm 2 mps 650 mmHg 74%
    11:00 +25°C° 0 mm 2 mps 651 mmHg 65%
    12:00 +24°C° 0.4 mm 2 mps 650 mmHg 67%
    13:00 +24°C° 0.4 mm 2 mps 650 mmHg 69%
    14:00 +24°C° 0.4 mm 2 mps 649 mmHg 71%
    15:00 +24°C° 0.5 mm 2 mps 648 mmHg 73%
    16:00 +23°C° 0.5 mm 2 mps 648 mmHg 74%
    17:00 +23°C° 0.5 mm 2 mps 647 mmHg 75%
    18:00 +20°C° 0.1 mm 2 mps 647 mmHg 81%
    19:00 +19°C° 0.1 mm 2 mps 647 mmHg 87%
    20:00 +18°C° 0.1 mm 2 mps 647 mmHg 92%
    21:00 +17°C° 0 mm 2 mps 647 mmHg 93%
    22:00 +17°C° 0 mm 2 mps 648 mmHg 93%
    23:00 +17°C° 0 mm 2 mps 648 mmHg 93%

    22 January, Wednesday

    Time Temperature Precipitation Wind Pressure Humidity
    00:00 +16°C° 0 mm 2 mps 648 mmHg 93%
    01:00 +16°C° 0 mm 2 mps 647 mmHg 93%
    02:00 +16°C° 0 mm 2 mps 647 mmHg 92%
    03:00 +16°C° 0 mm 2 mps 647 mmHg 92%
    04:00 +16°C° 0 mm 2 mps 647 mmHg 92%
    05:00 +15°C° 0 mm 2 mps 647 mmHg 92%
    06:00 +16°C° 0 mm 2 mps 647 mmHg 91%
    07:00 +16°C° 0 mm 2 mps 648 mmHg 90%
    08:00 +17°C° 0 mm 2 mps 648 mmHg 89%
    09:00 +19°C° 0 mm 2 mps 649 mmHg 81%
    10:00 +21°C° 0 mm 2 mps 650 mmHg 74%
    11:00 +24°C° 0 mm 2 mps 650 mmHg 66%
    12:00 +24°C° 0.1 mm 2 mps 650 mmHg 66%
    13:00 +24°C° 0.1 mm 2 mps 649 mmHg 66%
    14:00 +25°C° 0.1 mm 3 mps 649 mmHg 66%
    15:00 +24°C° 0.1 mm 3 mps 648 mmHg 69%
    16:00 +24°C° 0.1 mm 3 mps 648 mmHg 72%
    17:00 +22°C° 0.1 mm 3 mps 647 mmHg 75%
    18:00 +21°C° 0 mm 2 mps 647 mmHg 81%
    19:00 +19°C° 0 mm 2 mps 647 mmHg 87%
    20:00 +18°C° 0 mm 2 mps 647 mmHg 92%
    21:00 +18°C° 0 mm 2 mps 647 mmHg 92%
    22:00 +18°C° 0 mm 2 mps 648 mmHg 92%
    23:00 +17°C° 0 mm 2 mps 648 mmHg 91%

    23 January, Thursday

    Time Temperature Precipitation Wind Pressure Humidity
    00:00 +17°C° 0 mm 2 mps 648 mmHg 91%
    01:00 +16°C° 0 mm 2 mps 647 mmHg 91%
    02:00 +16°C° 0 mm 1 mps 647 mmHg 91%
    03:00 +16°C° 0 mm 1 mps 647 mmHg 91%
    04:00 +15°C° 0 mm 1 mps 646 mmHg 91%
    05:00 +15°C° 0 mm 1 mps 646 mmHg 91%
    06:00 +15°C° 0 mm 1 mps 647 mmHg 90%
    07:00 +16°C° 0 mm 1 mps 647 mmHg 89%
    08:00 +16°C° 0 mm 1 mps 648 mmHg 88%
    09:00 +19°C° 0 mm 1 mps 649 mmHg 77%
    10:00 +21°C° 0 mm 2 mps 650 mmHg 66%
    11:00 +24°C° 0 mm 2 mps 651 mmHg 55%
    12:00 +24°C° 0 mm 2 mps 650 mmHg 54%
    13:00 +25°C° 0 mm 2 mps 650 mmHg 54%
    14:00 +25°C° 0 mm 2 mps 649 mmHg 53%
    15:00 +24°C° 0 mm 2 mps 649 mmHg 58%
    16:00 +23°C° 0 mm 2 mps 648 mmHg 62%
    17:00 +21°C° 0 mm 2 mps 647 mmHg 67%
    18:00 +19°C° 0 mm 2 mps 647 mmHg 72%
    19:00 +18°C° 0 mm 2 mps 647 mmHg 77%
    20:00 +16°C° 0 mm 1 mps 647 mmHg 83%
    21:00 +15°C° 0 mm 1 mps 647 mmHg 81%
    22:00 +15°C° 0 mm 1 mps 648 mmHg 80%
    23:00 +14°C° 0 mm 1 mps 648 mmHg 79%

    24 January, Friday

    Time Temperature Precipitation Wind Pressure Humidity
    00:00 +14°C° 0 mm 1 mps 647 mmHg 79%
    01:00 +13°C° 0 mm 1 mps 647 mmHg 79%
    02:00 +13°C° 0 mm 1 mps 646 mmHg 79%
    03:00 +13°C° 0 mm 1 mps 646 mmHg 82%
    04:00 +13°C° 0 mm 1 mps 646 mmHg 85%
    05:00 +13°C° 0 mm 1 mps 646 mmHg 87%
    06:00 +14°C° 0 mm 1 mps 647 mmHg 85%
    07:00 +15°C° 0 mm 1 mps 648 mmHg 82%
    08:00 +16°C° 0 mm 1 mps 649 mmHg 79%
    09:00 +19°C° 0 mm 1 mps 649 mmHg 71%
    10:00 +20°C° 0 mm 2 mps 650 mmHg 63%
    11:00 +24°C° 0 mm 2 mps 651 mmHg 54%
    12:00 +24°C° 0 mm 2 mps 651 mmHg 54%
    13:00 +25°C° 0 mm 2 mps 650 mmHg 54%
    14:00 +25°C° 0 mm 2 mps 650 mmHg 53%
    15:00 +24°C° 0 mm 2 mps 649 mmHg 58%
    16:00 +24°C° 0 mm 2 mps 649 mmHg 63%
    17:00 +23°C° 0 mm 2 mps 648 mmHg 68%
    18:00 +20°C° 0 mm 2 mps 648 mmHg 75%
    19:00 +18°C° 0 mm 2 mps 648 mmHg 83%
    20:00 +16°C° 0 mm 1 mps 648 mmHg 90%
    21:00 +16°C° 0 mm 1 mps 648 mmHg 90%
    22:00 +15°C° 0 mm 1 mps 648 mmHg 90%
    23:00 +15°C° 0 mm 1 mps 649 mmHg 90%
    Show more